Previsão horária em Barstow

Hoje, 26 Outubro, Segunda-feira

Tempo Temperatura Precipitação Vento Pressão Humidade
00:00 +10°C° 0 mm 2 m/s 699 mmHg 76%
01:00 +10°C° 0 mm 2 m/s 700 mmHg 76%
02:00 +10°C° 0 mm 2 m/s 700 mmHg 60%
03:00 +10°C° 0 mm 3 m/s 701 mmHg 43%
04:00 +10°C° 0 mm 4 m/s 701 mmHg 27%
05:00 +10°C° 0 mm 4 m/s 702 mmHg 23%
06:00 +8°C° 0 mm 4 m/s 703 mmHg 19%
07:00 +8°C° 0 mm 4 m/s 704 mmHg 15%
08:00 +10°C° 0 mm 6 m/s 705 mmHg 12%
09:00 +12°C° 0 mm 8 m/s 705 mmHg 10%
10:00 +13°C° 0 mm 10 m/s 706 mmHg 7%
11:00 +15°C° 0 mm 9 m/s 705 mmHg 6%
12:00 +16°C° 0 mm 9 m/s 705 mmHg 6%
13:00 +17°C° 0 mm 9 m/s 705 mmHg 5%
14:00 +17°C° 0 mm 8 m/s 705 mmHg 5%
15:00 +16°C° 0 mm 7 m/s 704 mmHg 4%
16:00 +16°C° 0 mm 6 m/s 704 mmHg 4%
17:00 +13°C° 0 mm 4 m/s 704 mmHg 5%
18:00 +11°C° 0 mm 3 m/s 704 mmHg 6%
19:00 +9°C° 0 mm 1 m/s 703 mmHg 7%
20:00 +8°C° 0 mm 1 m/s 704 mmHg 7%
21:00 +8°C° 0 mm 1 m/s 704 mmHg 6%
22:00 +8°C° 0 mm 1 m/s 704 mmHg 6%
23:00 +7°C° 0 mm 1 m/s 704 mmHg 6%

Amanhã, 27 Outubro, Terça-feira

Tempo Temperatura Precipitação Vento Pressão Humidade
00:00 +7°C° 0 mm 1 m/s 704 mmHg 7%
01:00 +7°C° 0 mm 1 m/s 704 mmHg 7%
02:00 +7°C° 0 mm 1 m/s 704 mmHg 8%
03:00 +5°C° 0 mm 0 m/s 704 mmHg 10%
04:00 +5°C° 0 mm 0 m/s 704 mmHg 12%
05:00 +6°C° 0 mm 0 m/s 704 mmHg 10%
06:00 +8°C° 0 mm 0 m/s 705 mmHg 8%
07:00 +9°C° 0 mm 0 m/s 705 mmHg 7%
08:00 +12°C° 0 mm 0 m/s 706 mmHg 6%
09:00 +16°C° 0 mm 1 m/s 706 mmHg 4%
10:00 +20°C° 0 mm 1 m/s 707 mmHg 3%
11:00 +21°C° 0 mm 1 m/s 706 mmHg 4%
12:00 +22°C° 0 mm 1 m/s 706 mmHg 4%
13:00 +23°C° 0 mm 2 m/s 706 mmHg 4%
14:00 +23°C° 0 mm 1 m/s 705 mmHg 4%
15:00 +23°C° 0 mm 1 m/s 705 mmHg 5%
16:00 +23°C° 0 mm 1 m/s 705 mmHg 5%
17:00 +20°C° 0 mm 1 m/s 704 mmHg 7%
18:00 +15°C° 0 mm 0 m/s 704 mmHg 8%
19:00 +12°C° 0 mm 0 m/s 704 mmHg 10%
20:00 +11°C° 0 mm 0 m/s 704 mmHg 12%
21:00 +11°C° 0 mm 0 m/s 704 mmHg 14%
22:00 +10°C° 0 mm 0 m/s 704 mmHg 16%
23:00 +10°C° 0 mm 0 m/s 704 mmHg 17%

Depois de amanhã, 28 Outubro, Quarta-feira

Tempo Temperatura Precipitação Vento Pressão Humidade
00:00 +10°C° 0 mm 0 m/s 704 mmHg 19%
01:00 +10°C° 0 mm 0 m/s 703 mmHg 21%
02:00 +9°C° 0 mm 0 m/s 703 mmHg 24%
03:00 +9°C° 0 mm 0 m/s 703 mmHg 27%
04:00 +9°C° 0 mm 0 m/s 703 mmHg 30%
05:00 +10°C° 0 mm 0 m/s 703 mmHg 24%
06:00 +11°C° 0 mm 0 m/s 704 mmHg 19%
07:00 +13°C° 0 mm 0 m/s 704 mmHg 13%
08:00 +18°C° 0 mm 1 m/s 705 mmHg 11%
09:00 +21°C° 0 mm 1 m/s 705 mmHg 9%
10:00 +24°C° 0 mm 2 m/s 706 mmHg 7%
11:00 +26°C° 0 mm 2 m/s 705 mmHg 8%
12:00 +27°C° 0 mm 3 m/s 705 mmHg 8%
13:00 +28°C° 0 mm 3 m/s 704 mmHg 8%
14:00 +27°C° 0 mm 3 m/s 704 mmHg 8%
15:00 +27°C° 0 mm 2 m/s 704 mmHg 8%
16:00 +27°C° 0 mm 2 m/s 703 mmHg 9%
17:00 +23°C° 0 mm 1 m/s 703 mmHg 17%
18:00 +19°C° 0 mm 1 m/s 702 mmHg 26%
19:00 +13°C° 0 mm 0 m/s 702 mmHg 34%
20:00 +13°C° 0 mm 0 m/s 702 mmHg 37%
21:00 +13°C° 0 mm 0 m/s 702 mmHg 40%
22:00 +12°C° 0 mm 0 m/s 702 mmHg 43%
23:00 +12°C° 0 mm 0 m/s 702 mmHg 44%

29 Outubro, Quinta-feira

Tempo Temperatura Precipitação Vento Pressão Humidade
00:00 +12°C° 0 mm 0 m/s 702 mmHg 44%
01:00 +11°C° 0 mm 0 m/s 702 mmHg 44%
02:00 +11°C° 0 mm 0 m/s 702 mmHg 46%
03:00 +11°C° 0 mm 0 m/s 702 mmHg 48%
04:00 +10°C° 0 mm 0 m/s 701 mmHg 50%
05:00 +11°C° 0 mm 0 m/s 702 mmHg 40%
06:00 +13°C° 0 mm 0 m/s 702 mmHg 29%
07:00 +14°C° 0 mm 0 m/s 703 mmHg 19%
08:00 +18°C° 0 mm 0 m/s 704 mmHg 16%
09:00 +23°C° 0 mm 1 m/s 704 mmHg 12%
10:00 +27°C° 0 mm 1 m/s 705 mmHg 9%
11:00 +28°C° 0 mm 2 m/s 705 mmHg 8%
12:00 +29°C° 0 mm 3 m/s 704 mmHg 7%
13:00 +31°C° 0 mm 3 m/s 704 mmHg 6%
14:00 +30°C° 0 mm 3 m/s 704 mmHg 7%
15:00 +29°C° 0 mm 3 m/s 704 mmHg 7%
16:00 +29°C° 0 mm 3 m/s 703 mmHg 7%
17:00 +25°C° 0 mm 2 m/s 703 mmHg 16%
18:00 +20°C° 0 mm 2 m/s 703 mmHg 24%
19:00 +18°C° 0 mm 1 m/s 702 mmHg 33%
20:00 +16°C° 0 mm 1 m/s 702 mmHg 36%
21:00 +15°C° 0 mm 1 m/s 702 mmHg 38%
22:00 +15°C° 0 mm 1 m/s 702 mmHg 40%
23:00 +13°C° 0 mm 0 m/s 702 mmHg 41%

30 Outubro, Sexta-feira

Tempo Temperatura Precipitação Vento Pressão Humidade
00:00 +13°C° 0 mm 0 m/s 702 mmHg 42%
01:00 +12°C° 0 mm 0 m/s 702 mmHg 42%
02:00 +12°C° 0 mm 0 m/s 702 mmHg 45%
03:00 +12°C° 0 mm 0 m/s 702 mmHg 48%
04:00 +11°C° 0 mm 0 m/s 702 mmHg 51%
05:00 +12°C° 0 mm 0 m/s 703 mmHg 38%
06:00 +15°C° 0 mm 1 m/s 703 mmHg 26%
07:00 +16°C° 0 mm 1 m/s 704 mmHg 14%
08:00 +21°C° 0 mm 1 m/s 705 mmHg 11%
09:00 +24°C° 0 mm 2 m/s 705 mmHg 9%
10:00 +28°C° 0 mm 2 m/s 706 mmHg 6%
11:00 +29°C° 0 mm 3 m/s 706 mmHg 6%
12:00 +30°C° 0 mm 3 m/s 705 mmHg 6%
13:00 +32°C° 0 mm 4 m/s 705 mmHg 6%
14:00 +30°C° 0 mm 4 m/s 705 mmHg 6%
15:00 +30°C° 0 mm 3 m/s 704 mmHg 6%
16:00 +29°C° 0 mm 3 m/s 704 mmHg 7%
17:00 +26°C° 0 mm 3 m/s 704 mmHg 10%
18:00 +21°C° 0 mm 2 m/s 703 mmHg 13%
19:00 +19°C° 0 mm 1 m/s 703 mmHg 16%
20:00 +18°C° 0 mm 1 m/s 703 mmHg 20%
21:00 +16°C° 0 mm 1 m/s 703 mmHg 25%
22:00 +15°C° 0 mm 1 m/s 703 mmHg 29%

31 Outubro, Sábado

Tempo Temperatura Precipitação Vento Pressão Humidade
Mostrar mais